Cloud_Cover
7 52 78 18 5 5 0 0 5 0 0 0 0 0 0 0 0 0 0 0 0 0 0 0 0 0 0 0 0 0 0 0 0 0 0 0 0 0 0 0 0 0 6 0
5 4 5 12 5 5 5 5 3 4 5 0 1 0 0 0 0 0 0 0 0 0 0 0 0 0 0 0 0 0 0 0 0 0 0 0 0 3 5 0 2 0 46 5
3 5 0 3 0 0 2 0 0 0 0 0 0 0 0 0 0 0 0 0 0 0 0 0 0 0 0 0 0 0 0 0 0 0 0 0 1 0 1 0 0 0 2 0
0 0 0 0 0 0 0 0 0 0 0 4 0 0 4 0 0 1 3 0 0 0 0 0 0 0 0 0 0 0 0 0 0 0 0 0 5 1 5 0 0 10 0 58
1 5 0 0 0 0 0 0 0 3 5 4 5 5 5 5 5 5 0 3 0 3 0 0 0 0 0 0 0 0 0 0 0 0 0 4 5 8 4 0 1 52 11 0
4 5 1 1 0 0 0 0 0 1 4 5 5 5 5 5 5 5 0 0 4 4 1 0 0 0 0 0 0 0 0 0 4 4 0 4 0 4 0 0 4 24 3 0
5 5 5 5 5 5 3 0 2 1 4 2 5 5 5 5 17 5 2 5 5 5 4 0 0 0 0 0 3 4 0 0 2 4 4 9 0 0 0 0 0 0 0 0
0 5 4 1 1 5 2 4 5 5 5 5 3 5 5 5 5 5 5 11 5 5 5 5 4 0 0 2 5 4 0 0 5 5 5 2 0 0 0 0 0 0 5 4
0 0 0 4 0 3 5 5 5 5 4 2 5 5 5 5 5 6 10 26 21 5 5 5 5 0 0 0 4 3 0 0 4 5 94 46 0 0 5 5 0 2 21 7
2 4 5 4 0 3 3 5 5 5 5 5 6 38 9 5 5 19 90 100 100 31 5 5 5 3 0 5 5 5 3 0 4 5 34 10 1 4 0 2 1 0 0 11
5 5 5 5 21 67 5 5 5 5 5 5 5 5 20 53 85 100 100 100 98 8 5 5 5 5 4 5 5 5 2 2 5 5 20 9 4 5 15 5 0 22 10 8
5 5 5 5 12 78 30 5 5 5 5 5 51 92 100 100 100 100 100 100 100 8 5 5 5 5 5 5 5 5 1 5 5 5 5 5 10 14 25 8 100 5 27 4
100 100 100 100 100 100 100 97 99 61 7 16 75 88 100 100 100 100 100 100 100 6 5 5 5 5 4 7 5 5 0 5 5 5 35 42 100 80 94 50 5 2 1 5
100 100 55 63 100 100 100 100 81 76 74 80 97 100 100 100 100 100 100 100 87 5 5 5 5 40 5 5 5 5 4 24 5 19 61 84 79 5 4 0 1 2 5 38
92 100 94 100 100 100 86 100 100 100 100 94 100 95 100 100 100 100 100 100 68 7 32 15 26 62 25 5 24 89 25 49 60 7 67 94 41 5 5 5 5 5 6 28
100 96 100 99 100 100 100 100 100 100 100 90 97 25 100 100 100 100 100 100 28 6 99 100 100 100 11 20 14 27 98 85 48 10 100 100 6 5 0 4 65 85 75 15
100 100 100 100 100 98 100 100 100 100 100 97 90 61 100 100 100 100 100 100 98 72 100 100 100 100 97 99 94 100 99 5 34 100 100 57 5 3 5 4 0 2 5 5
100 100 100 100 100 98 97 100 100 100 100 100 91 63 100 100 100 100 100 100 100 100 100 100 100 94 100 100 100 100 7 5 62 100 86 5 1 0 0 5 5 5 5 34
100 100 100 100 100 100 99 100 100 100 100 100 100 100 100 100 100 100 100 100 98 96 100 100 100 100 100 99 16 7 99 28 96 46 8 3 0 5 5 8 98 100 100 100
100 100 100 100 100 100 100 100 100 100 100 100 100 100 100 100 100 100 100 100 100 100 100 100 100 99 100 77 0 5 100 98 34 20 4 1 5 12 66 99 100 100 100 100
100 100 100 100 100 100 100 100 100 100 100 100 100 100 100 100 100 100 100 94 66 83 33 18 17 15 98 2 0 100 93 7 5 5 0 5 61 100 100 100 100 100 100 100
100 100 100 100 100 100 100 91 72 96 72 33 89 77 100 100 100 100 100 100 30 38 77 67 8 100 9 1 18 82 6 4 5 3 5 9 100 100 100 100 100 100 100 100
100 100 100 100 100 100 100 75 91 98 49 28 65 100 100 100 100 100 100 100 90 5 62 18 100 59 3 2 7 78 52 5 5 4 8 100 100 100 100 100 100 100 100 100
100 100 100 100 99 29 3 1 0 0 0 5 20 100 100 100 100 100 100 91 38 75 79 97 80 5 5 5 22 97 16 5 5 5 50 100 100 100 100 100 100 100 100 97
100 100 100 100 4 2 0 0 0 3 0 6 68 100 100 98 100 100 100 92 48 95 100 100 27 5 5 5 64 82 5 5 5 7 100 100 100 100 100 100 100 100 100 57
100 100 100 14 4 0 3 3 5 5 5 28 82 100 100 96 100 100 72 92 98 100 100 66 6 13 14 67 80 70 5 5 5 68 100 100 100 100 100 100 100 78 80 64
100 100 76 80 83 97 98 25 5 5 5 18 100 83 95 37 90 26 48 72 100 100 99 15 45 99 100 100 100 8 5 5 39 100 100 100 100 100 100 100 100 100 34 69